Time,TemperatureF,DewpointF,PressureIn,WindDirection,WindDirectionDegrees,WindSpeedMPH,WindSpeedGustMPH,Humidity,HourlyPrecipIn,Conditions,Clouds,dailyrainin,SoftwareType,DateUTC
2013-01-06 00:08:00,15.0,0.0,30.29,East,89,0.0,0.0,0,0.00,CLR,CLR,0.00,WeatherDisplay:10.36,2013-01-06 07:08:00,
2013-01-06 00:23:00,14.4,0.0,30.29,North,7,0.0,7.0,0,0.00,CLR,CLR,0.00,WeatherDisplay:10.36,2013-01-06 07:23:00,
2013-01-06 00:38:00,14.3,0.0,30.28,NW,312,0.0,0.0,0,0.00,CLR,CLR,0.00,WeatherDisplay:10.36,2013-01-06 07:38:00,
2013-01-06 00:53:00,14.5,0.0,30.28,NW,312,0.0,0.0,0,0.00,CLR,CLR,0.00,WeatherDisplay:10.36,2013-01-06 07:53:00,
2013-01-06 01:08:00,13.4,0.0,30.28,NW,312,0.0,0.0,0,0.00,CLR,CLR,0.00,WeatherDisplay:10.36,2013-01-06 08:08:00,
2013-01-06 01:23:00,13.2,0.0,30.27,NW,312,0.0,0.0,0,0.00,CLR,CLR,0.00,WeatherDisplay:10.36,2013-01-06 08:23:00,
2013-01-06 01:38:00,13.6,0.0,30.28,NW,312,0.0,0.0,0,0.00,CLR,CLR,0.00,WeatherDisplay:10.36,2013-01-06 08:38:00,
2013-01-06 01:53:00,12.9,0.0,30.27,NW,312,0.0,0.0,0,0.00,CLR,CLR,0.00,WeatherDisplay:10.36,2013-01-06 08:53:00,
2013-01-06 02:08:00,12.9,0.0,30.27,NW,312,0.0,0.0,0,0.00,CLR,CLR,0.00,WeatherDisplay:10.36,2013-01-06 09:08:00,
2013-01-06 02:23:00,12.2,0.0,30.27,NW,312,0.0,0.0,0,0.00,CLR,CLR,0.00,WeatherDisplay:10.36,2013-01-06 09:23:00,
2013-01-06 02:38:00,11.3,0.0,30.27,NW,312,0.0,0.0,0,0.00,CLR,CLR,0.00,WeatherDisplay:10.36,2013-01-06 09:38:00,
2013-01-06 02:53:00,11.8,0.0,30.27,NW,312,0.0,0.0,0,0.00,CLR,CLR,0.00,WeatherDisplay:10.36,2013-01-06 09:53:00,
2013-01-06 03:08:00,10.9,0.0,30.26,NW,312,0.0,0.0,0,0.00,CLR,CLR,0.00,WeatherDisplay:10.36,2013-01-06 10:08:00,
2013-01-06 03:23:00,10.2,0.0,30.26,NW,312,0.0,0.0,0,0.00,CLR,CLR,0.00,WeatherDisplay:10.36,2013-01-06 10:23:00,
2013-01-06 03:38:00,10.2,0.0,30.25,NW,312,0.0,0.0,0,0.00,CLR,CLR,0.00,WeatherDisplay:10.36,2013-01-06 10:38:00,
2013-01-06 03:53:00,10.6,0.0,30.25,NW,312,0.0,0.0,0,0.00,CLR,CLR,0.00,WeatherDisplay:10.36,2013-01-06 10:53:00,
2013-01-06 04:08:00,9.9,0.0,30.24,NW,312,0.0,0.0,0,0.00,CLR,CLR,0.00,WeatherDisplay:10.36,2013-01-06 11:08:00,
2013-01-06 04:23:00,9.5,0.0,30.24,NW,316,0.0,6.0,0,0.00,CLR,CLR,0.00,WeatherDisplay:10.36,2013-01-06 11:23:00,
2013-01-06 04:38:00,9.9,0.0,30.23,NW,316,0.0,0.0,0,0.00,CLR,CLR,0.00,WeatherDisplay:10.36,2013-01-06 11:38:00,
2013-01-06 04:53:00,9.1,0.0,30.23,NW,316,0.0,0.0,0,0.00,CLR,CLR,0.00,WeatherDisplay:10.36,2013-01-06 11:53:00,
2013-01-06 05:08:00,8.8,0.0,30.22,NW,316,0.0,0.0,0,0.00,CLR,CLR,0.00,WeatherDisplay:10.36,2013-01-06 12:08:00,
2013-01-06 05:23:00,8.6,0.0,30.22,NW,316,0.0,0.0,0,0.00,CLR,CLR,0.00,WeatherDisplay:10.36,2013-01-06 12:23:00,
2013-01-06 05:38:00,8.9,0.0,30.21,NW,316,0.0,0.0,0,0.00,CLR,CLR,0.00,WeatherDisplay:10.36,2013-01-06 12:38:00,
2013-01-06 05:53:00,9.3,0.0,30.21,NW,316,0.0,0.0,0,0.00,CLR,CLR,0.00,WeatherDisplay:10.36,2013-01-06 12:53:00,
2013-01-06 06:08:00,9.5,0.0,30.22,NW,316,0.0,0.0,0,0.00,CLR,CLR,0.00,WeatherDisplay:10.36,2013-01-06 13:08:00,
2013-01-06 06:23:00,7.9,0.0,30.21,NW,316,0.0,0.0,0,0.00,CLR,CLR,0.00,WeatherDisplay:10.36,2013-01-06 13:23:00,
2013-01-06 06:38:00,9.1,0.0,30.22,NW,316,0.0,0.0,0,0.00,CLR,CLR,0.00,WeatherDisplay:10.36,2013-01-06 13:38:00,
2013-01-06 06:53:00,9.1,0.0,30.21,NW,316,0.0,0.0,0,0.00,CLR,CLR,0.00,WeatherDisplay:10.36,2013-01-06 13:53:00,
2013-01-06 07:08:00,9.7,0.0,30.20,NW,316,0.0,0.0,0,0.00,CLR,CLR,0.00,WeatherDisplay:10.36,2013-01-06 14:08:00,
2013-01-06 07:23:00,11.2,0.0,30.20,NW,316,0.0,0.0,0,0.00,CLR,CLR,0.00,WeatherDisplay:10.36,2013-01-06 14:23:00,
2013-01-06 07:38:00,10.5,0.0,30.20,NW,316,0.0,0.0,0,0.00,CLR,CLR,0.00,WeatherDisplay:10.36,2013-01-06 14:38:00,
2013-01-06 07:53:00,11.9,0.0,30.20,NW,316,0.0,0.0,0,0.00,CLR,CLR,0.00,WeatherDisplay:10.36,2013-01-06 14:53:00,
2013-01-06 08:08:00,11.0,0.0,30.20,NW,316,0.0,0.0,0,0.00,CLR,CLR,0.00,WeatherDisplay:10.36,2013-01-06 15:08:00,
2013-01-06 08:23:00,13.0,0.0,30.20,NW,316,0.0,0.0,0,0.00,CLR,CLR,0.00,WeatherDisplay:10.36,2013-01-06 15:23:00,
2013-01-06 08:38:00,15.4,0.0,30.20,NW,316,0.0,0.0,0,0.00,CLR,CLR,0.00,WeatherDisplay:10.36,2013-01-06 15:38:00,
2013-01-06 08:53:00,18.0,0.0,30.20,NW,316,0.0,0.0,0,0.00,CLR,CLR,0.00,WeatherDisplay:10.36,2013-01-06 15:53:00,
2013-01-06 09:08:00,22.2,0.0,30.19,NW,316,0.0,0.0,0,0.00,CLR,CLR,0.00,WeatherDisplay:10.36,2013-01-06 16:08:00,
2013-01-06 09:23:00,25.3,0.0,30.19,NW,316,0.0,0.0,0,0.00,CLR,CLR,0.00,WeatherDisplay:10.36,2013-01-06 16:23:00,
2013-01-06 09:38:00,29.1,0.0,30.19,NW,316,0.0,0.0,0,0.00,CLR,CLR,0.00,WeatherDisplay:10.36,2013-01-06 16:38:00,
2013-01-06 09:53:00,32.8,0.0,30.19,NW,316,0.0,0.0,0,0.00,CLR,CLR,0.00,WeatherDisplay:10.36,2013-01-06 16:53:00,
2013-01-06 10:08:00,37.1,0.0,30.18,NW,316,0.0,0.0,0,0.00,CLR,CLR,0.00,WeatherDisplay:10.36,2013-01-06 17:08:00,
2013-01-06 10:23:00,40.8,0.0,30.17,WNW,297,3.0,9.0,0,0.00,CLR,CLR,0.00,WeatherDisplay:10.36,2013-01-06 17:23:00,
2013-01-06 10:38:00,42.0,0.0,30.17,ESE,121,0.0,3.0,0,0.00,CLR,CLR,0.00,WeatherDisplay:10.36,2013-01-06 17:38:00,
2013-01-06 10:53:00,44.4,0.0,30.16,NW,326,3.0,13.0,0,0.00,CLR,CLR,0.00,WeatherDisplay:10.36,2013-01-06 17:53:00,
2013-01-06 11:08:00,45.2,0.0,30.14,NNW,333,7.0,15.0,0,0.00,CLR,CLR,0.00,WeatherDisplay:10.36,2013-01-06 18:08:00,
2013-01-06 11:23:00,45.7,0.0,30.13,NNW,336,8.0,17.0,0,0.00,CLR,CLR,0.00,WeatherDisplay:10.36,2013-01-06 18:23:00,
2013-01-06 11:38:00,46.3,0.0,30.12,North,349,5.0,18.0,0,0.00,CLR,CLR,0.00,WeatherDisplay:10.36,2013-01-06 18:38:00,
2013-01-06 11:53:00,46.0,0.0,30.11,NNW,341,6.0,17.0,0,0.00,CLR,CLR,0.00,WeatherDisplay:10.36,2013-01-06 18:53:00,
2013-01-06 12:08:00,45.9,0.0,30.10,NNW,341,2.0,16.0,0,0.00,CLR,CLR,0.00,WeatherDisplay:10.36,2013-01-06 19:08:00,
2013-01-06 12:23:00,46.5,0.0,30.09,NNW,329,1.0,14.0,0,0.00,CLR,CLR,0.00,WeatherDisplay:10.36,2013-01-06 19:23:00,
2013-01-06 12:38:00,46.6,0.0,30.08,NW,326,6.0,14.0,0,0.00,CLR,CLR,0.00,WeatherDisplay:10.36,2013-01-06 19:38:00,
2013-01-06 13:08:00,46.5,0.0,30.06,NNW,330,2.0,17.0,0,0.00,CLR,CLR,0.00,WeatherDisplay:10.36,2013-01-06 20:08:00,
2013-01-06 13:23:00,48.7,0.0,30.06,NNW,336,3.0,12.0,0,0.00,CLR,CLR,0.00,WeatherDisplay:10.36,2013-01-06 20:23:00,
2013-01-06 13:38:00,48.1,0.0,30.06,NNW,340,2.0,11.0,0,0.00,CLR,CLR,0.00,WeatherDisplay:10.36,2013-01-06 20:38:00,
2013-01-06 13:53:00,48.4,0.0,30.06,NNW,336,1.0,10.0,0,0.00,CLR,CLR,0.00,WeatherDisplay:10.36,2013-01-06 20:53:00,
2013-01-06 14:08:00,47.4,0.0,30.06,NNW,347,1.0,9.0,0,0.00,CLR,CLR,0.00,WeatherDisplay:10.36,2013-01-06 21:08:00,
2013-01-06 14:23:00,48.4,0.0,30.06,NNW,339,0.0,5.0,0,0.00,CLR,CLR,0.00,WeatherDisplay:10.36,2013-01-06 21:23:00,
2013-01-06 14:38:00,48.5,0.0,30.05,NW,315,2.0,7.0,0,0.00,CLR,CLR,0.00,WeatherDisplay:10.36,2013-01-06 21:38:00,
2013-01-06 14:53:00,48.1,0.0,30.05,NW,308,0.0,6.0,0,0.00,CLR,CLR,0.00,WeatherDisplay:10.36,2013-01-06 21:53:00,
2013-01-06 15:08:00,47.7,0.0,30.05,East,99,0.0,7.0,0,0.00,CLR,CLR,0.00,WeatherDisplay:10.36,2013-01-06 22:08:00,
2013-01-06 15:23:00,46.2,0.0,30.05,NNW,340,0.0,7.0,0,0.00,CLR,CLR,0.00,WeatherDisplay:10.36,2013-01-06 22:23:00,
2013-01-06 15:38:00,44.5,0.0,30.05,North,352,0.0,7.0,0,0.00,CLR,CLR,0.00,WeatherDisplay:10.36,2013-01-06 22:38:00,
2013-01-06 15:53:00,43.6,0.0,30.05,NNW,339,0.0,8.0,0,0.00,CLR,CLR,0.00,WeatherDisplay:10.36,2013-01-06 22:53:00,
2013-01-06 16:08:00,43.1,0.0,30.05,NW,312,0.0,5.0,0,0.00,CLR,CLR,0.00,WeatherDisplay:10.36,2013-01-06 23:08:00,
2013-01-06 16:23:00,42.5,0.0,30.04,NNE,18,0.0,6.0,0,0.00,CLR,CLR,0.00,WeatherDisplay:10.36,2013-01-06 23:23:00,
2013-01-06 16:38:00,41.7,0.0,30.05,NNW,338,0.0,10.0,0,0.00,CLR,CLR,0.00,WeatherDisplay:10.36,2013-01-06 23:38:00,
2013-01-06 16:53:00,40.7,0.0,30.04,NNW,344,2.0,10.0,0,0.00,CLR,CLR,0.00,WeatherDisplay:10.36,2013-01-06 23:53:00,
2013-01-06 17:08:00,40.4,0.0,30.04,North,355,0.0,8.0,0,0.00,CLR,CLR,0.00,WeatherDisplay:10.36,2013-01-07 00:08:00,
2013-01-06 17:23:00,39.7,0.0,30.04,NNW,336,0.0,8.0,0,0.00,CLR,CLR,0.00,WeatherDisplay:10.36,2013-01-07 00:23:00,
2013-01-06 17:38:00,39.5,0.0,30.04,NW,320,1.0,7.0,0,0.00,CLR,CLR,0.00,WeatherDisplay:10.36,2013-01-07 00:38:00,
2013-01-06 17:53:00,39.2,0.0,30.04,NNW,331,0.0,6.0,0,0.00,CLR,CLR,0.00,WeatherDisplay:10.36,2013-01-07 00:53:00,
2013-01-06 18:08:00,39.1,0.0,30.04,NNW,337,0.0,9.0,0,0.00,CLR,CLR,0.00,WeatherDisplay:10.36,2013-01-07 01:08:00,
2013-01-06 18:23:00,39.1,0.0,30.03,NNW,348,0.0,6.0,0,0.00,CLR,CLR,0.00,WeatherDisplay:10.36,2013-01-07 01:23:00,
2013-01-06 18:38:00,38.7,0.0,30.04,NNW,342,1.0,8.0,0,0.00,CLR,CLR,0.00,WeatherDisplay:10.36,2013-01-07 01:38:00,
2013-01-06 18:53:00,38.8,0.0,30.04,North,349,0.0,9.0,0,0.00,CLR,CLR,0.00,WeatherDisplay:10.36,2013-01-07 01:53:00,
2013-01-06 19:08:00,38.2,0.0,30.04,NNW,343,2.0,10.0,0,0.00,CLR,CLR,0.00,WeatherDisplay:10.36,2013-01-07 02:08:00,
2013-01-06 19:23:00,38.2,0.0,30.03,NNW,329,6.0,12.0,0,0.00,CLR,CLR,0.00,WeatherDisplay:10.36,2013-01-07 02:23:00,
2013-01-06 19:38:00,38.3,0.0,30.03,NW,323,8.0,15.0,0,0.00,CLR,CLR,0.00,WeatherDisplay:10.36,2013-01-07 02:38:00,
2013-01-06 19:53:00,38.1,0.0,30.02,NW,321,7.0,15.0,0,0.00,CLR,CLR,0.00,WeatherDisplay:10.36,2013-01-07 02:53:00,
2013-01-06 20:08:00,38.0,0.0,30.02,NNW,327,0.0,7.0,0,0.00,CLR,CLR,0.00,WeatherDisplay:10.36,2013-01-07 03:08:00,
2013-01-06 20:23:00,38.7,0.0,30.01,NNW,346,6.0,11.0,0,0.00,CLR,CLR,0.00,WeatherDisplay:10.36,2013-01-07 03:23:00,
2013-01-06 20:38:00,39.1,0.0,30.01,NNW,333,3.0,13.0,0,0.00,CLR,CLR,0.00,WeatherDisplay:10.36,2013-01-07 03:38:00,
2013-01-06 20:53:00,39.0,0.0,30.00,NNW,340,1.0,9.0,0,0.00,CLR,CLR,0.00,WeatherDisplay:10.36,2013-01-07 03:53:00,
2013-01-06 21:08:00,39.0,0.0,30.01,NNW,328,3.0,13.0,0,0.00,CLR,CLR,0.00,WeatherDisplay:10.36,2013-01-07 04:08:00,
2013-01-06 21:23:00,38.9,0.0,30.00,NNW,332,1.0,9.0,0,0.00,CLR,CLR,0.00,WeatherDisplay:10.36,2013-01-07 04:23:00,
2013-01-06 21:38:00,36.9,0.0,30.00,NW,310,0.0,6.0,0,0.00,CLR,CLR,0.00,WeatherDisplay:10.36,2013-01-07 04:38:00,
2013-01-06 21:53:00,33.0,0.0,30.01,NW,315,5.0,10.0,0,0.00,CLR,CLR,0.00,WeatherDisplay:10.36,2013-01-07 04:53:00,
2013-01-06 22:08:00,36.1,0.0,30.01,NW,308,2.0,10.0,0,0.00,CLR,CLR,0.00,WeatherDisplay:10.36,2013-01-07 05:08:00,
2013-01-06 22:23:00,38.0,0.0,30.01,NNW,342,2.0,10.0,0,0.00,CLR,CLR,0.00,WeatherDisplay:10.36,2013-01-07 05:23:00,
2013-01-06 22:38:00,38.2,0.0,30.02,NNW,331,0.0,10.0,0,0.00,CLR,CLR,0.00,WeatherDisplay:10.36,2013-01-07 05:38:00,
2013-01-06 22:53:00,38.2,0.0,30.01,NNW,347,0.0,8.0,0,0.00,CLR,CLR,0.00,WeatherDisplay:10.36,2013-01-07 05:53:00,
2013-01-06 23:08:00,37.4,0.0,30.01,North,355,1.0,6.0,0,0.00,CLR,CLR,0.00,WeatherDisplay:10.36,2013-01-07 06:08:00,
2013-01-06 23:23:00,37.6,0.0,30.02,NNW,342,2.0,8.0,0,0.00,CLR,CLR,0.00,WeatherDisplay:10.36,2013-01-07 06:23:00,
2013-01-06 23:38:00,37.4,0.0,30.02,NNW,342,0.0,9.0,0,0.00,CLR,CLR,0.00,WeatherDisplay:10.36,2013-01-07 06:38:00,
2013-01-06 23:53:00,37.1,0.0,30.02,NNW,331,3.0,8.0,0,0.00,CLR,CLR,0.00,WeatherDisplay:10.36,2013-01-07 06:53:00,